This is the latest recevied weather packets stored in our database for station/object DH5RAE-11. If no packets are shown the sender has not sent any weather packets the latest 10 day(s).
| Time | Temp. | Humidity | Pressure | Rain* | Wind** | Luminosity | Snow |
|---|---|---|---|---|---|---|---|
| 1787633238 | 11.11° C | 81% | 1015.1 hPa | 0 mm | - | - | - |
| 1787632567 | 11.11° C | 80% | 1015 hPa | 0 mm | - | - | - |
| 1787631896 | 11.11° C | 80% | 1015 hPa | 0 mm | - | - | - |
| 1787630490 | 11.11° C | 78% | 1014.6 hPa | 0 mm | - | - | - |
| 1787629889 | 11.67° C | 77% | 1014.8 hPa | 0 mm | - | - | - |
| 1787629289 | 11.67° C | 76% | 1014.9 hPa | 0 mm | - | - | - |
| 1787628550 | 12.22° C | 75% | 1014.9 hPa | 0 mm | - | - | - |
| 1787627948 | 12.78° C | 75% | 1015 hPa | 0 mm | - | - | - |
| 1787625803 | 12.78° C | 73% | 1015.6 hPa | 0 mm | - | - | - |
| 1787625203 | 12.78° C | 72% | 1015.6 hPa | 0 mm | - | - | - |
| 1787624603 | 13.33° C | 70% | 1015.8 hPa | 0 mm | - | - | - |
| 1787624002 | 14.44° C | 68% | 1016.3 hPa | 0 mm | - | - | - |
| 1787623402 | 14.44° C | 65% | 1016.2 hPa | 0 mm | - | - | - |
| 1787622802 | 16.11° C | 64% | 1016.3 hPa | 0 mm | - | - | - |
| 1787622201 | 16.11° C | 62% | 1016.1 hPa | 0 mm | - | - | - |
| 1787621601 | 16.11° C | 62% | 1016.1 hPa | 0 mm | - | - | - |
| 1787621001 | 16.67° C | 61% | 1016.2 hPa | 0 mm | - | - | - |
| 1787620401 | 16.67° C | 61% | 1015.9 hPa | 0 mm | - | - | - |
| 1787619800 | 16.67° C | 60% | 1016 hPa | 0 mm | - | - | - |
| 1787619200 | 16.67° C | 61% | 1016.5 hPa | 0 mm | - | - | - |
| 1787618600 | 16.11° C | 61% | 1016.7 hPa | 0 mm | - | - | - |
| 1787617999 | 16.11° C | 62% | 1016.8 hPa | 0 mm | - | - | - |
| 1787617399 | 15.56° C | 64% | 1016.8 hPa | 0 mm | - | - | - |
| 1787616799 | 15° C | 64% | 1016.9 hPa | 0 mm | - | - | - |
| 1787616199 | 15.56° C | 64% | 1017.1 hPa | 0 mm | - | - | - |
* Rain latest hour (hover to see other rain measurements)
** Current wind speed in m/s (hover to see current wind gust speed)